Regional Weather Roundup
Issued by NWS

Home | Current Version | Previous Version | Graphics & Text | Print | Product List | Glossary On
Versions: 1 2 3 4 5 6 7 8 9 10 11 12 13 14 15 16 17 18 19 20 21 22 23 24 25 26 27 28 29 30 31 32 33 34 35 36 37 38 39 40 41 42 43 44 45 46 47 48 49 50
000
ASUS43 KIND 250809
RWRIN

WEATHER ROUNDUP FOR INDIANA
NATIONAL WEATHER SERVICE INDIANAPOLIS IN
400 AM EDT WED APR 25 2018

NOTE: "FAIR" INDICATES FEW OR NO CLOUDS BELOW 12,000 FEET WITH NO
SIGNIFICANT WEATHER AND/OR OBSTRUCTIONS TO VISIBILITY.

* - STATION DOES NOT REPORT WEATHER SUCH AS PRECIPITATION OR FOG.

+ - STATION NOT QUALITY CONTROLLED BY THE NATIONAL WEATHER SERVICE.
    USE DATA WITH CAUTION...ESPECIALLY DEWPOINT AND RELATIVE
    HUMIDITY OBSERVATIONS.

INZ001>003-010>013-019-020-250900-
NORTHWEST INDIANA

CITY           SKY/WX    TMP DP  RH WIND       PRES   REMARKS
GARY /AIRPORT/ CLOUDY    44  37  75 N15G22    30.03F
KNOX *+        CLOUDY    45  43  93 N9        29.97F
LA PORTE +     CLOUDY    43  42  95 NW10      29.99S
MICHIGAN CITY+ CLOUDY    41  37  87 NW3       30.01S
MONTICELLO +   FAIR      46  44  96 NW12      29.95S
RENSSELAER +   MOCLDY    45  41  87 NW12      29.98S FOG
VALPARAISO     CLOUDY    43  40  89 NW9       30.00S

$$

LMZ046-743>745-250900-
SOUTHERN LAKE MICHIGAN

STATION/POSITION TIME  TEMP    WIND        PRES    WAVE
                       AIR SEA DIR/SP/G            HT
                 (UTC) (F)     (DEG/KT/KT) (MB)    (FT)
BURNS HARBOR     0740   40     340/  6/  8 1016.9S
MICHIGAN CITY    0740   40     350/  6/  7   N/A

$$

INZ004-005-014>016-021>024-250900-
NORTH CENTRAL INDIANA

CITY           SKY/WX    TMP DP  RH WIND       PRES   REMARKS
GOSHEN         CLOUDY    53  51  93 N8        29.95F FOG
LOGANSPORT +   FAIR      48  46  93 N5        29.96R
PERU/GRISSOM   FAIR      51  51 100 NW6       29.93F
ROCHESTER +    CLOUDY    54  52  94 N6        29.95F
SOUTH BEND     CLOUDY    48  45  89 NW7       29.97F
WARSAW +       CLOUDY    52  52 100 N5        29.94F FOG

$$

INZ006>009-017-018-025>027-250900-
NORTHEAST INDIANA

CITY           SKY/WX    TMP DP  RH WIND       PRES   REMARKS
ANGOLA *+      CLOUDY    50  50 100 N6        29.93S FOG
AUBURN +       DRIZZLE   50  50 100 NW6       29.93F
FORT WAYNE     CLOUDY    51  50  96 N6        29.93F FOG
HUNTINGTON +   CLOUDY    50  49  96 N6        29.93S

$$

INZ028-029-035-036-043>045-051>053-250900-
WEST CENTRAL INDIANA

CITY           SKY/WX    TMP DP  RH WIND       PRES   REMARKS
CRAWFORDSVL +  FAIR      47  47 100 NW6       29.95R
GREENCASTLE +  FAIR      50  48  93 CALM      29.94F FOG
LAFAYETTE      FAIR      47  46  97 N12       29.95S
TERRE HAUTE    FAIR      51  49  92 NW5       29.95F

$$

INZ030>032-037>040-046>048-054>057-064-065-250900-
CENTRAL INDIANA

CITY           SKY/WX    TMP DP  RH WIND       PRES   REMARKS
FRANKFORT +    FAIR      51  49  95 N6        29.96S
GREENWOOD *+   MOCLDY    49  49  99 CALM      29.93F
INDIANAPOLIS   FAIR      49  49 100 NW6       29.92F FOG
-EAGLE CREEK   FAIR      51  48  89 NW3       29.92F
KOKOMO +       MOCLDY    51  49  92 NW6       29.94F
MARION +       CLOUDY    50  49  97 CALM      29.93S FOG
MT COMFORT *+  MOCLDY    50  50 100 N6        29.92S
SHELBYVILLE    CLOUDY    54  49  83 N12       29.91F
ZIONSVILLE +   MOCLDY    49  48  98 NW6       29.93F FOG

$$

INZ033-034-041-042-049-050-058-059-250900-
EAST CENTRAL INDIANA

CITY           SKY/WX    TMP DP  RH WIND       PRES   REMARKS
MUNCIE         CLOUDY    53  49  86 N13       29.91S
RICHMOND +     CLOUDY    50  50 100 N8        29.90F FOG

$$

INZ060-061-067>069-081>083-085>088-250900-
SOUTHWEST INDIANA

CITY           SKY/WX    TMP DP  RH WIND       PRES   REMARKS
EVANSVILLE     FAIR      52  52 100 NW5       29.96S FOG
HUNTINGBURG +  FAIR      49  49 100 NW5       29.94F FOG
WASHINGTON +   FAIR      51  49  93 NW5       29.94S

$$

INZ062-063-066-070>080-084-089>092-250900-
SOUTH CENTRAL AND SOUTHEAST INDIANA

CITY           SKY/WX    TMP DP  RH WIND       PRES   REMARKS
BATESVILLE +   CLOUDY    52  52 100 MISG      29.90S
BEDFORD +      FAIR      52  50  93 NW3       29.92  FOG
BLOOMINGTON    FAIR      51  50  96 CALM      29.93F FOG
FRENCH LICK *+ FAIR      52 N/A N/A CALM      29.93F
MADISON *+     CLOUDY    54  52  94 NW6       29.92S
NORTH VERNON + CLOUDY    52  50  93 N6        29.91F

$$





USA.gov is the U.S. government's official web portal to all federal, state and local government web resources and services.